Johnstown, PA

10:35 AM EDT on August 25, 2016 (GMT -0400)
Johnstown-Cambria County

Weather History for KJST - March, 2011

Change the Weather History Date:

Friday, March 25, 2011

  Actual Average Record
Temperature  
Mean Temperature 22 °F 39 °F  
Max Temperature 28 °F 47 °F 80 °F (1939)
Min Temperature 15 °F 31 °F 12 °F (1940)
Degree Days  
Heating Degree Days 44 26  
Month to date heating degree days 764  
Since 1 July heating degree days 5643  
Cooling Degree Days 0 0  
Month to date cooling degree days 0  
Year to date cooling degree days 0  
Moisture  
Dew Point 11 °F    
Average Humidity 64    
Maximum Humidity 86    
Minimum Humidity 45    
Precipitation  
Precipitation 0.00 in 0.13 in 0.72 in (1965)
Month to date precipitation 2.48  
Year to date precipitation 7.71  
Sea Level Pressure  
Sea Level Pressure 30.00 in    
Wind  
Wind Speed 8 mph (WNW)    
Max Wind Speed 16 mph    
Max Gust Speed 22 mph    
Visibility 10 miles    
Events Snow    
T = Trace of Precipitation, MM = Missing Value Source: NWS Daily Summary

Daily Weather History Graph

Daily Weather History Graph

Search for Another Location

Airport or City:

Trip Planner

Search our weather history database for the weather conditions in past years. The results will help you decide how hot, cold, wet, or windy it might be!

Date:

Astronomy

Mar. 25, 2011 Rise Set
Actual Time 7:11 AM EDT 7:32 PM EDT
Civil Twilight 6:43 AM EDT 7:59 PM EDT
Nautical Twilight 6:11 AM EDT 8:31 PM EDT
Astronomical Twilight 5:39 AM EDT 9:04 PM EDT
Moon 1:45 AM EDT 11:09 AM EDT
Length of Visible Light 13h 15m
Length of Day
12h 21m
Waning Gibbous, 59% of the Moon is Illuminated
Mar 25
Waning Gibbous
Mar 26
Last Quarter
Apr 3
New
Apr 11
First Quarter
Apr 17
Full

Hourly Weather History & Observations

Time (EDT) Temp. Windchill Dew Point Humidity Pressure Visibility Wind Dir Wind Speed Gust Speed Precip Events Conditions
12:54 AM 21.0 °F 10.6 °F 12.9 °F 71% 30.01 in 10.0 mi NW 9.2 mph - N/A   Clear
1:54 AM 19.0 °F 10.0 °F 12.0 °F 74% 30.01 in 10.0 mi WNW 6.9 mph - N/A   Clear
2:54 AM 18.0 °F 9.8 °F 10.9 °F 74% 30.02 in 10.0 mi WNW 5.8 mph - N/A   Clear
3:54 AM 17.1 °F 8.7 °F 10.9 °F 77% 30.01 in 10.0 mi NW 5.8 mph - N/A   Scattered Clouds
4:43 AM 17.6 °F 8.2 °F 10.4 °F 73% 29.93 in 10.0 mi WNW 6.9 mph - N/A   Mostly Cloudy
4:54 AM 17.1 °F 10.0 °F 10.9 °F 77% 30.02 in 10.0 mi WNW 4.6 mph - N/A   Overcast
5:24 AM 17.6 °F 8.2 °F 12.2 °F 79% 29.94 in 10.0 mi WNW 6.9 mph - N/A   Overcast
5:54 AM 18.0 °F 9.8 °F 12.0 °F 78% 30.05 in 10.0 mi WNW 5.8 mph - N/A   Overcast
6:54 AM 17.6 °F 7.3 °F 12.2 °F 79% 29.95 in 9.0 mi West 8.1 mph - N/A   Overcast
7:54 AM 15.8 °F 7.2 °F 12.2 °F 86% 29.95 in 4.0 mi West 5.8 mph - N/A Snow Light Snow
8:54 AM 17.1 °F 5.8 °F 12.0 °F 81% 30.05 in 4.0 mi West 9.2 mph - 0.00 in Snow Light Snow
9:42 AM 19.4 °F 10.4 °F 10.4 °F 68% 29.95 in 10.0 mi Variable 6.9 mph - 0.00 in   Mostly Cloudy
9:54 AM 19.0 °F 8.2 °F 12.0 °F 74% 30.05 in 10.0 mi WSW 9.2 mph - 0.00 in   Mostly Cloudy
10:21 AM 19.4 °F 8.6 °F 10.4 °F 68% 29.95 in 10.0 mi West 9.2 mph - N/A   Scattered Clouds
10:54 AM 21.0 °F 10.6 °F 12.0 °F 68% 30.04 in 10.0 mi WNW 9.2 mph - N/A   Clear
11:54 AM 24.1 °F 15.2 °F 10.9 °F 57% 30.03 in 10.0 mi NNW 8.1 mph 16.1 mph N/A   Partly Cloudy
12:54 PM 25.0 °F 14.8 °F 10.0 °F 53% 30.02 in 10.0 mi West 10.4 mph - N/A   Mostly Cloudy
1:54 PM 27.0 °F 16.1 °F 10.0 °F 49% 30.01 in 10.0 mi West 12.7 mph 18.4 mph N/A   Overcast
2:54 PM 26.1 °F 14.5 °F 10.9 °F 53% 29.99 in 10.0 mi WNW 13.8 mph - N/A   Overcast
3:54 PM 28.0 °F 18.1 °F 10.0 °F 47% 29.99 in 10.0 mi West 11.5 mph 21.9 mph N/A   Partly Cloudy
4:54 PM 28.0 °F 16.1 °F 9.0 °F 45% 29.99 in 10.0 mi WNW 16.1 mph - N/A   Clear
5:54 PM 27.0 °F 15.2 °F 8.1 °F 45% 29.98 in 10.0 mi West 15.0 mph 21.9 mph N/A   Clear
6:54 PM 27.0 °F 17.3 °F 9.0 °F 47% 29.99 in 10.0 mi WNW 10.4 mph - N/A   Overcast
7:54 PM 26.1 °F 18.4 °F 9.0 °F 49% 30.01 in 10.0 mi West 6.9 mph - N/A   Scattered Clouds
8:54 PM 25.0 °F 19.3 °F 9.0 °F 51% 30.02 in 10.0 mi West 4.6 mph - N/A   Overcast
9:54 PM 24.1 °F 16.0 °F 10.0 °F 55% 30.02 in 10.0 mi West 6.9 mph - N/A   Overcast
10:54 PM 23.0 °F 15.8 °F 10.9 °F 60% 30.02 in 10.0 mi WNW 5.8 mph - N/A   Overcast
11:54 PM 24.1 °F 15.2 °F 10.9 °F 57% 30.02 in 10.0 mi NW 8.1 mph - N/A   Overcast